Location: Arborea
(39.7744°N, 8.5819°E)
Time: 23:07:17
(UTC+00:00)

Cosmos 1000 Rocket - Pass Details

Date: 07 October 2023
Orbit: 952 x 993 km, 82.9° (Epoch: 03 December)

Event Time Altitude Azimuth Distance (km) Brightness Sun altitude
Exits shadow 18:29:20 12° 47° (NE) 2,602 6.4 -18.1°
Drops below altitude 10° 18:30:03 10° 42° (NE) 2,762 6.5 -18.3°
Sets 18:33:25 0° 24° (NNE) 3,714 7.4 -18.9°
